軌道要素
Epoch 2018 Oct. 9.0 TT = JDT 2458400.5
T 2018 Oct. 4.58968 TT MPCW
q 2.1910624 (2000.0) P Q
n 0.11528542 Peri. 308.47950 +0.92916907 -0.24631395
a 4.1810607 Node 67.33522 +0.35568747 +0.79877864
e 0.4759554 Incl. 17.37963 -0.10065420 +0.54889172
P 8.55
From 150 observations 2001 Aug. 19-2018 Dec. 28, mean residual 0".6.
|